{"data":{"norad_id":61603,"epoch":"2026-05-25T02:33:45.201024Z","epoch_age_seconds":72621,"freshness":"FRESH","line1":"1 61603U 24188K   26145.10677316  .00000379  00000+0  10323-2 0  9997","line2":"2 61603  87.8911  25.6592 0001041  87.8839 272.2408 13.11417881 81425","mean_motion":13.11417881,"eccentricity":0.0001041,"inclination_deg":87.8911,"raan_deg":25.6592,"arg_perigee_deg":87.8839,"mean_anomaly_deg":272.2408,"bstar":0.0010323,"rev_number":8142,"period_min":109.80481666926,"perigee_km":1216.8883596694,"apogee_km":1218.4698085781,"semimajor_km":7595.8160841237,"source":"CELESTRAK","updated_at":"2026-05-25T13:38:22.749841Z"}}